Location: Newark
(22.3828°N, 114.1972°E)
Time: 04:39:45
(UTC+00:00)

LightSail 2 - Visible Passes

Search period start: 16 December 2019 00:00
Search period end: 26 December 2019 00:00
Orbit: 696 x 730 km, 24.0° (Epoch: 15 December)

Date Brightness Start Highest point End Pass type
(mag) Time Alt. Az. Time Alt. Az. Time Alt. Az.
16 Dec 8.1 10:45:27 10° SW 10:46:52 11° SSW 10:48:18 10° S visible
19 Dec 8.3 22:06:46 10° SSE 22:07:15 10° SSE 22:07:43 10° SSE visible
21 Dec 7.6 21:52:48 10° SSW 21:56:14 18° SSE 21:59:40 10° ESE visible
22 Dec 7.8 20:55:59 10° S 20:58:08 13° SSE 21:00:18 10° SE visible
23 Dec 6.8 21:40:49 10° SW 21:45:11 29° SSE 21:49:34 10° E visible
24 Dec 7.1 20:45:48 20° S 20:47:04 22° SSE 20:50:54 10° ESE visible
24 Dec 5.7 22:27:20 10° WSW 22:32:18 59° SSE 22:37:19 10° E visible
25 Dec 8.2 19:51:51 10° ESE 19:51:51 10° ESE 19:51:54 10° ESE visible
25 Dec 6.0 21:30:51 19° SW 21:34:08 46° SSE 21:38:59 10° E visible
